Location: Shenandoah County Park
(38.9356°N, 78.4524°W)
Time: 06:01:07
(UTC-04:00)

Explorer 11/Cluster Stage 4 - Pass Details

Date: 01 March 2024
Orbit: 465 x 1220 km, 28.8° (Epoch: 12 April)

Event Time Altitude Azimuth Distance (km) Brightness Sun altitude
Rises 03:25:10 0° 264° (W) 4,132 - -38.9°
Reaches altitude 10° 03:28:40 10° 252° (WSW) 3,143 - -38.3°
Maximum altitude 03:34:50 25° 201° (SSW) 2,108 - -37.2°
Exits shadow 03:40:17 11° 150° (SSE) 2,807 9.4 -36.2°
Drops below altitude 10° 03:40:31 10° 149° (SSE) 2,863 9.5 -36.2°
Sets 03:43:33 0° 137° (SE) 3,697 10.3 -35.6°
